Wind_Speed
30 30 30 29 29 29 30 31 31 31 32 32 33 34 34 36 37 39 40 42 43 44 45 45 45 48 49 49 49 49 48 49 48 47 47 46 46 46 46 45 44 44 43 42
30 30 29 28 28 28 29 30 31 31 32 32 33 33 34 34 37 38 39 40 42 44 45 45 46 48 49 50 50 50 50 50 50 49 49 48 48 48 48 48 46 46 45 44
29 29 28 28 27 28 29 29 30 31 32 32 33 33 33 34 36 38 39 40 41 42 44 44 46 48 49 50 51 51 51 51 51 51 51 50 50 50 49 49 48 47 47 46
28 28 28 28 28 28 29 29 30 30 31 32 32 35 34 34 35 37 39 40 41 42 43 44 45 46 48 50 51 52 51 52 52 52 53 51 51 50 50 49 48 47 47 47
29 28 28 28 28 28 28 29 29 29 30 31 32 35 35 34 34 35 37 39 40 42 42 43 45 45 47 49 52 52 52 53 54 54 54 53 52 51 49 49 48 47 47 47
29 29 28 28 28 27 28 28 28 28 29 31 32 33 34 33 33 34 35 37 39 41 42 42 44 46 46 48 51 52 53 54 54 55 55 54 53 53 52 50 49 49 49 47
29 28 27 27 27 27 27 26 27 27 27 30 31 32 33 32 31 31 32 35 38 40 41 42 43 44 45 47 50 51 53 54 55 56 56 56 55 54 53 53 51 50 49 49
28 28 27 26 25 26 26 26 26 26 27 28 29 31 32 31 30 30 31 32 35 38 39 41 42 44 44 46 48 51 52 54 54 54 55 55 55 55 54 54 53 51 50 50
28 27 27 26 25 25 25 25 25 26 27 27 28 30 31 31 31 30 31 32 34 36 38 39 41 43 44 45 46 49 51 52 52 53 53 54 55 55 55 54 54 53 52 52
28 27 27 26 26 25 24 25 25 25 27 28 29 29 29 30 30 30 32 33 34 36 38 39 40 42 43 44 46 47 49 50 51 52 52 53 54 55 55 55 54 54 53 53
28 28 28 27 25 25 24 24 25 25 26 28 29 30 29 29 30 30 32 33 34 36 38 40 41 41 43 44 45 46 47 49 51 52 53 53 53 54 55 54 54 54 54 54
29 29 28 27 26 26 26 25 25 26 26 27 30 31 30 29 30 30 32 33 35 36 37 39 40 41 42 44 44 46 48 48 50 52 53 54 54 54 54 55 55 55 54 54
29 30 29 29 28 27 27 26 26 26 27 27 28 29 29 29 30 31 32 33 34 36 37 38 40 41 42 44 45 45 47 48 48 50 52 54 54 55 54 55 56 55 55 55
30 30 29 29 28 27 26 26 26 27 27 27 27 28 28 30 30 30 31 32 34 35 36 37 39 40 41 43 44 45 46 48 48 49 50 52 54 55 55 55 56 57 56 56
30 30 29 28 27 26 26 25 26 26 26 27 26 27 27 28 30 30 30 31 33 34 35 36 38 39 41 42 44 45 45 46 47 47 48 50 52 54 55 55 55 57 57 57
29 29 29 27 26 26 25 24 24 24 24 25 26 26 27 28 28 29 30 31 32 33 34 36 37 38 40 41 42 44 44 45 46 47 47 47 49 52 53 54 55 56 57 57
28 28 27 27 26 26 24 23 22 23 23 24 24 25 26 26 27 28 29 30 32 33 33 34 35 37 38 40 42 43 43 44 45 46 47 46 47 49 51 51 52 54 55 56
27 26 26 26 26 25 24 23 23 23 22 23 24 24 25 25 26 28 29 30 30 32 33 33 34 35 37 38 40 42 44 44 44 45 46 46 46 47 48 50 50 51 53 55
25 25 26 26 26 25 24 24 23 23 22 22 22 24 24 24 25 27 29 29 30 31 32 33 34 35 36 37 39 40 42 43 44 45 45 46 46 47 47 48 49 50 51 52
26 26 26 26 27 26 25 24 24 24 23 23 23 23 24 24 25 25 27 28 29 31 31 32 34 35 36 37 38 39 41 42 43 44 46 46 46 47 48 48 48 49 50 51
26 26 27 27 27 26 25 25 25 25 25 24 23 23 24 25 25 26 26 28 29 30 31 31 32 34 35 36 37 39 40 42 43 44 45 46 47 47 48 49 48 48 49 50
27 27 28 28 27 25 25 25 25 26 25 25 24 23 24 25 25 25 26 27 28 29 30 31 31 32 34 35 36 37 38 40 42 43 45 46 47 47 48 49 49 48 47 48
28 28 28 27 26 26 25 25 26 26 25 25 25 25 25 24 25 25 25 26 26 27 29 30 31 32 32 33 34 36 37 39 40 41 43 44 45 46 47 47 48 48 47 46
28 28 28 27 26 26 25 26 26 26 25 25 25 25 25 25 25 25 25 25 25 25 27 28 30 30 31 31 33 34 35 37 38 39 40 41 43 43 45 46 46 47 47 47
29 28 27 26 26 25 25 25 26 25 25 26 26 26 26 26 26 25 25 25 25 25 25 27 28 29 30 31 31 33 34 36 37 37 38 39 41 42 43 43 44 45 46 47
28 28 27 26 26 25 25 25 25 25 25 26 26 27 27 27 27 26 26 25 25 26 25 25 25 26 28 29 30 31 32 33 34 35 36 36 37 39 40 41 43 44 44 45
Wind_Direction
299 293 292 288 284 281 279 276 272 270 269 267 264 261 258 254 250 248 247 245 244 241 240 238 236 234 233 233 234 235 234 234 235 235 235 234 235 235 235 236 236 236 236 235
300 296 296 291 286 282 280 277 274 272 270 268 264 260 257 254 252 250 248 245 243 241 240 239 236 234 234 234 234 235 234 234 235 235 235 235 235 235 236 236 236 236 236 235
302 300 297 293 288 284 281 280 276 273 270 268 267 261 257 255 253 251 250 247 242 241 240 238 236 235 235 234 235 236 235 234 234 234 235 236 236 236 236 237 237 236 235 235
302 301 297 294 289 287 284 282 279 275 271 269 267 265 259 257 255 253 251 247 244 241 240 238 237 236 235 235 235 236 236 235 234 234 234 235 236 236 237 236 236 236 234 234
303 302 299 295 292 290 287 285 281 277 272 270 268 267 262 259 257 253 250 247 244 242 241 239 236 236 235 235 235 235 236 235 234 234 235 236 237 238 237 235 236 236 235 234
304 302 300 299 294 291 289 287 284 280 275 271 270 268 263 259 259 255 251 247 244 243 241 240 238 237 236 235 236 236 236 236 236 235 235 237 238 238 238 237 237 237 237 236
306 304 301 300 296 293 290 288 287 281 276 273 271 268 265 262 259 257 252 247 244 243 242 240 239 238 237 236 236 236 236 237 236 235 235 237 238 238 239 237 238 239 238 237
308 307 302 299 297 294 290 287 287 283 280 275 271 270 266 263 260 257 253 248 245 243 243 242 241 240 238 237 237 236 236 237 236 236 236 237 238 238 237 238 238 238 237 237
310 307 304 299 298 295 291 286 286 284 280 277 274 271 265 263 262 258 254 250 247 245 244 244 243 242 241 239 238 237 237 237 236 236 236 236 237 237 237 238 238 237 237 238
310 308 306 301 297 295 291 289 287 284 280 278 276 273 268 266 262 259 256 252 249 246 245 245 244 243 242 240 240 238 236 236 236 236 236 236 237 237 237 237 238 237 237 239
310 308 306 301 296 294 290 289 287 286 281 277 276 274 272 269 267 263 259 255 252 250 249 247 246 245 243 241 242 239 237 237 235 236 237 237 237 237 237 238 238 238 238 239
311 309 307 302 297 292 289 289 287 285 283 278 275 274 273 271 268 265 263 258 255 252 250 249 248 248 245 243 243 241 239 238 237 237 237 238 238 238 238 239 239 239 239 239
310 310 308 305 300 295 291 288 285 283 282 279 276 274 272 271 268 266 264 261 258 254 251 250 249 248 247 244 244 242 240 239 239 239 239 239 239 239 240 241 240 240 240 240
309 308 307 305 302 297 293 289 285 283 281 278 276 275 272 270 270 267 266 262 260 257 253 251 250 249 248 246 245 244 242 240 240 240 240 240 240 240 240 242 242 241 241 241
307 307 307 305 301 298 294 291 288 286 284 280 277 275 273 271 270 268 266 263 260 258 256 253 252 250 248 247 246 244 243 241 241 241 241 241 240 241 241 242 242 242 242 242
307 307 307 306 302 299 297 294 292 288 285 283 280 276 273 272 271 270 267 265 263 260 257 256 255 253 250 248 246 245 244 243 242 242 243 242 241 241 242 243 243 243 243 242
306 307 308 308 304 301 300 299 294 290 288 284 283 280 275 274 273 272 270 267 264 262 260 258 256 254 252 249 247 245 245 244 243 243 243 243 243 242 242 242 242 243 243 243
308 307 307 307 307 304 302 299 296 294 292 289 285 282 279 277 275 274 272 269 265 264 262 260 258 255 253 251 249 246 245 245 244 244 244 243 243 243 243 243 243 242 242 242
309 308 308 308 306 304 301 300 298 296 293 291 289 283 280 279 277 276 274 271 268 267 265 262 260 258 256 253 250 248 247 246 246 246 245 245 245 244 243 244 243 242 242 242
310 308 306 307 305 304 303 300 297 296 295 293 290 286 282 281 280 277 276 273 270 268 266 264 262 260 258 256 253 250 247 246 246 246 246 246 246 245 244 244 244 243 242 241
312 309 307 305 305 304 302 299 297 295 295 295 291 288 285 282 283 282 279 275 272 269 266 265 263 262 260 258 254 251 249 248 247 247 247 247 247 246 246 244 244 244 243 241
312 310 309 307 306 305 301 298 297 296 295 294 291 288 287 285 285 285 283 279 275 271 268 267 265 264 262 260 256 252 250 249 248 248 248 248 248 247 246 245 244 244 243 242
313 311 309 307 305 302 300 297 296 297 295 294 292 289 288 286 286 287 286 283 280 276 271 269 268 266 263 261 258 254 252 250 250 249 249 249 248 248 247 245 244 244 243 242
315 312 310 309 307 302 300 298 297 295 294 293 292 289 288 288 288 287 287 285 283 279 276 272 270 267 265 262 259 255 253 251 251 251 250 249 248 247 245 245 245 244 243 243
316 313 311 308 306 303 302 300 299 296 293 293 293 291 288 286 288 288 287 285 282 281 280 277 274 269 266 264 260 256 253 252 251 251 250 247 246 246 244 244 244 244 245 245
315 314 312 310 308 305 304 303 302 298 295 294 293 292 288 287 287 287 287 285 283 282 282 281 277 272 268 265 262 257 255 253 252 250 249 248 247 245 244 244 244 244 245 245
Height
5674 5672 5668 5666 5664 5662 5660 5659 5658 5657 5656 5656 5656 5657 5657 5658 5660 5662 5664 5667 5671 5674 5677 5681 5685 5689 5695 5699 5704 5709 5713 5718 5723 5728 5731 5735 5740 5744 5748 5752 5756 5760 5764 5767
5667 5663 5661 5657 5655 5652 5651 5649 5648 5647 5646 5646 5646 5647 5647 5648 5650 5652 5654 5657 5660 5663 5666 5670 5674 5678 5683 5688 5693 5698 5702 5707 5712 5717 5721 5725 5729 5733 5737 5742 5746 5750 5754 5758
5658 5656 5652 5649 5646 5644 5643 5641 5640 5638 5637 5636 5637 5637 5638 5639 5640 5641 5644 5646 5649 5652 5655 5659 5663 5667 5672 5677 5682 5687 5691 5696 5700 5705 5710 5714 5718 5722 5727 5731 5736 5740 5744 5748
5649 5647 5643 5640 5638 5636 5634 5633 5631 5629 5627 5627 5627 5626 5629 5629 5630 5631 5633 5636 5638 5641 5644 5648 5652 5656 5661 5665 5670 5675 5679 5684 5689 5693 5698 5702 5707 5711 5715 5720 5724 5729 5734 5738
5642 5639 5635 5633 5631 5628 5626 5624 5622 5620 5618 5618 5617 5616 5618 5619 5620 5622 5623 5625 5628 5631 5633 5637 5641 5645 5649 5654 5658 5663 5667 5672 5677 5681 5686 5691 5695 5700 5704 5709 5713 5718 5723 5728
5634 5631 5627 5624 5622 5620 5617 5616 5614 5612 5610 5609 5608 5607 5608 5609 5611 5613 5614 5615 5618 5621 5623 5626 5630 5634 5638 5642 5647 5651 5656 5660 5665 5670 5675 5680 5684 5689 5693 5698 5702 5707 5712 5717
5626 5623 5619 5616 5614 5612 5610 5608 5606 5603 5601 5600 5600 5598 5600 5601 5602 5604 5605 5606 5608 5611 5613 5616 5619 5623 5627 5631 5635 5639 5644 5648 5652 5657 5663 5668 5673 5677 5682 5686 5691 5696 5701 5706
5618 5615 5612 5608 5606 5604 5602 5600 5598 5596 5594 5593 5592 5591 5592 5593 5594 5595 5596 5597 5599 5601 5604 5606 5609 5612 5616 5619 5623 5627 5631 5636 5640 5645 5650 5655 5660 5665 5670 5675 5680 5685 5690 5695
5610 5607 5604 5601 5598 5597 5594 5592 5591 5588 5586 5585 5584 5583 5584 5584 5585 5586 5587 5589 5590 5592 5594 5596 5599 5601 5604 5608 5612 5615 5620 5624 5628 5633 5638 5643 5647 5652 5657 5662 5668 5673 5678 5683
5603 5600 5597 5594 5591 5589 5587 5584 5582 5580 5578 5577 5576 5576 5576 5576 5577 5578 5578 5580 5581 5583 5585 5586 5589 5591 5593 5596 5600 5604 5608 5613 5617 5621 5626 5630 5635 5640 5645 5650 5655 5661 5666 5671
5596 5594 5590 5587 5584 5581 5579 5577 5574 5572 5570 5569 5568 5571 5568 5568 5568 5569 5569 5570 5572 5573 5575 5576 5579 5580 5583 5586 5589 5592 5597 5601 5605 5610 5614 5619 5623 5628 5633 5638 5643 5648 5654 5659
5589 5586 5583 5580 5577 5573 5571 5569 5567 5565 5563 5561 5560 5564 5560 5560 5559 5559 5560 5561 5562 5563 5565 5566 5568 5570 5572 5575 5578 5581 5585 5589 5593 5598 5602 5606 5611 5616 5621 5626 5631 5636 5641 5646
5582 5579 5575 5572 5571 5567 5563 5561 5559 5557 5556 5554 5553 5556 5552 5552 5551 5551 5551 5551 5552 5553 5555 5556 5558 5560 5562 5564 5567 5570 5574 5578 5582 5586 5590 5594 5599 5603 5608 5614 5618 5623 5628 5633
5575 5572 5569 5566 5561 5558 5556 5554 5551 5549 5547 5546 5546 5546 5545 5543 5542 5542 5542 5542 5542 5543 5545 5546 5547 5549 5551 5553 5556 5559 5562 5566 5570 5574 5578 5582 5586 5591 5596 5601 5605 5610 5615 5620
5568 5565 5561 5558 5554 5551 5549 5546 5544 5542 5540 5539 5538 5537 5537 5535 5534 5533 5533 5533 5533 5534 5535 5536 5537 5538 5540 5542 5545 5548 5551 5554 5558 5562 5566 5569 5573 5578 5582 5587 5592 5596 5601 5606
5560 5557 5554 5551 5548 5544 5542 5539 5537 5534 5533 5531 5530 5529 5528 5527 5526 5525 5524 5524 5524 5525 5525 5526 5527 5528 5530 5532 5534 5537 5539 5543 5546 5550 5554 5557 5561 5565 5569 5573 5578 5583 5587 5592
5553 5550 5547 5544 5541 5537 5535 5533 5530 5528 5526 5524 5522 5522 5520 5519 5518 5517 5516 5515 5515 5515 5516 5516 5517 5517 5519 5521 5523 5526 5528 5531 5534 5538 5541 5545 5548 5552 5556 5560 5564 5568 5573 5578
5547 5543 5539 5537 5534 5531 5531 5526 5524 5521 5520 5517 5515 5514 5512 5511 5510 5508 5507 5507 5506 5506 5507 5507 5507 5508 5509 5510 5512 5514 5517 5520 5523 5526 5529 5532 5536 5539 5543 5547 5550 5555 5559 5564
5541 5537 5533 5530 5527 5524 5523 5520 5517 5514 5513 5510 5508 5506 5505 5503 5502 5501 5499 5498 5497 5497 5497 5497 5497 5498 5499 5500 5501 5503 5506 5508 5511 5514 5517 5520 5523 5527 5530 5533 5537 5541 5545 5550
5535 5531 5528 5524 5520 5517 5517 5513 5509 5508 5506 5504 5501 5499 5497 5496 5494 5494 5492 5490 5489 5488 5488 5488 5488 5488 5488 5489 5490 5492 5494 5497 5499 5502 5505 5508 5511 5514 5517 5521 5524 5528 5532 5536
5529 5525 5522 5517 5513 5510 5509 5505 5502 5501 5500 5496 5494 5492 5490 5488 5486 5485 5483 5481 5480 5479 5478 5478 5478 5478 5478 5479 5479 5481 5483 5485 5487 5490 5493 5495 5498 5501 5504 5508 5512 5516 5519 5523
5523 5519 5515 5510 5507 5507 5501 5498 5496 5494 5491 5489 5486 5484 5482 5480 5478 5476 5474 5473 5471 5470 5469 5468 5468 5468 5468 5468 5469 5470 5472 5474 5476 5478 5481 5483 5486 5488 5491 5495 5499 5503 5507 5511
5517 5513 5508 5505 5504 5498 5494 5491 5488 5486 5483 5481 5479 5477 5475 5473 5471 5469 5467 5465 5463 5461 5460 5459 5458 5458 5458 5458 5458 5460 5461 5463 5464 5467 5469 5471 5473 5476 5479 5483 5487 5491 5495 5499
5511 5506 5502 5498 5495 5491 5487 5483 5481 5478 5476 5473 5471 5469 5467 5465 5463 5461 5459 5456 5455 5453 5451 5450 5449 5448 5448 5448 5448 5449 5450 5452 5453 5455 5457 5459 5462 5465 5468 5471 5475 5479 5484 5488
5504 5499 5495 5492 5488 5484 5481 5477 5474 5471 5468 5466 5463 5461 5459 5457 5455 5452 5450 5448 5447 5445 5443 5441 5440 5439 5438 5438 5438 5439 5440 5441 5443 5445 5446 5449 5451 5454 5457 5460 5464 5468 5472 5476
5498 5493 5489 5486 5482 5478 5474 5470 5467 5464 5461 5458 5455 5453 5451 5448 5446 5444 5442 5440 5438 5437 5435 5433 5431 5430 5429 5429 5429 5429 5430 5431 5433 5434 5436 5438 5441 5443 5446 5450 5453 5456 5461 5464